Location: Milton
(43.5183°N, 79.8775°W)
Time: 14:51:58
(UTC+00:00)

NOAA 15 - Pass Details

Date: 10 April 2023
Orbit: 796 x 811 km, 98.6° (Epoch: 29 May)

Event Time Altitude Azimuth Distance (km) Brightness Sun altitude
Rises 01:03:02 0° 193° (SSW) 3,315 7.7 -12.5°
Reaches altitude 10° 01:05:39 10° 204° (SSW) 2,387 7.1 -12.9°
Maximum altitude 01:10:15 30° 265° (W) 1,417 6.5 -13.7°
Drops below altitude 10° 01:14:52 10° 325° (NW) 2,395 8.0 -14.4°
Sets 01:17:30 0° 337° (NNW) 3,328 8.6 -14.8°
